[[{"header":{"parameterUnit":"m.s-1","parameterCategory":1,"la1":30.2991,"la2":30.254,"lo1":-89.0895,"lo2":-89.0444,"dy":0.0017,"dx":0.0017,"nx":28,"ny":28,"refTime":"2024-02-25T03:00:00:Z","depth":0,"parameterNumber":2,"parameterNumberName":"U-component_of_WINDS"},"data":[0,0,0,0,0,0,0,0,0,0,0,0,0,0,0,0,0,0,0,0,0,0,0,0,0,0,0,0,0,0,0,0,0,0,0,0,0,0,0,0,0,0,0,0,0,0,0,0,0,0,0,0,0,0,0,0,0,0,-1.5042,-1.5042,0,-1.5099,-1.5099,-1.51,-1.5078,-1.5077,-1.5076,-1.5075,-1.513,-1.5133,-1.5135,0,0,0,0,0,0,0,0,0,0,0,0,0,-1.4911,-1.4913,-1.5042,-1.5043,-1.5043,-1.5099,-1.51,-1.51,-1.5079,-1.5077,-1.5075,-1.5074,-1.5129,-1.5132,-1.5136,0,0,0,0,0,0,0,0,0,0,0,0,0,-1.4967,-1.4914,-1.5042,-1.5039,-1.504,-1.5099,-1.51,-1.51,-1.5079,-1.5077,-1.5075,-1.5073,-1.5128,-1.5132,-1.5136,-1.52,0,0,-1.5148,-1.515,0,0,0,0,0,0,0,0,-1.4964,-1.4972,-1.5039,-1.5039,-1.504,-1.508,-1.5074,-1.5134,-1.5079,-1.5064,-1.5075,-1.5072,-1.5115,-1.512,-1.5135,-1.5203,-1.5205,-1.5149,-1.5151,-1.5153,-1.5154,0,0,0,0,0,0,0,-1.496,-1.497,-1.5064,-1.504,-1.5041,-1.5034,-1.504,-1.5085,-1.5099,-1.5065,-1.5064,-1.5071,-1.5115,-1.5131,-1.5136,-1.5206,-1.5149,-1.5152,-1.5155,-1.5156,-1.5326,-1.5328,0,0,0,0,0,0,-1.4957,-1.4967,-1.5062,-1.5066,-1.4997,-1.5038,-1.5045,-1.5069,-1.5099,-1.5102,-1.5072,-1.507,-1.5125,-1.5131,-1.5138,-1.5212,-1.5153,-1.5157,-1.5159,-1.5324,-1.5327,-1.5329,0,0,0,0,0,0,-1.4954,-1.4965,-1.506,-1.5016,-1.5028,-1.5042,-1.507,-1.5071,-1.5087,-1.5105,-1.5107,-1.5086,-1.5123,-1.5132,-1.5184,-1.5213,-1.5158,-1.5162,-1.5322,-1.5325,-1.5328,-1.5362,0,0,0,0,0,0,-1.495,-1.4965,-1.499,-1.5017,-1.503,-1.5107,-1.5072,-1.5073,-1.5094,-1.5091,-1.5118,-1.5121,-1.5123,-1.5178,-1.5188,-1.5218,-1.5165,-1.5319,-1.5323,-1.5327,-1.5359,-1.5366,-1.5373,0,0,0,0,0,-1.4946,-1.4997,-1.4991,-1.5003,-1.5062,-1.5109,-1.5116,-1.5118,-1.5097,-1.5121,-1.5133,-1.512,-1.521,-1.5184,-1.5195,-1.5226,-1.5317,-1.5322,-1.5327,-1.5355,-1.5365,-1.5373,0,0,0,0,0,0,-1.4973,-1.5001,-1.4994,-1.5057,-1.5081,-1.5105,-1.5136,-1.5128,-1.5158,-1.5153,-1.5154,-1.516,-1.5213,-1.5226,-1.5197,-1.5288,-1.526,-1.5267,-1.5278,-1.5287,-1.5294,-1.5289,-1.5169,0,0,0,0,0,-1.4986,-1.5023,-1.5045,-1.5098,-1.511,-1.5121,-1.5142,-1.5141,-1.5165,-1.5175,-1.519,-1.5213,-1.5246,-1.5268,-1.53,-1.5361,-1.5365,-1.5388,-1.5396,-1.5401,-1.5406,-1.5437,-1.5447,-1.5344,-1.5344,-1.5344,0,0,-1.5014,-1.5034,-1.5057,-1.5104,-1.5122,-1.5158,-1.513,-1.517,-1.5196,-1.5181,-1.523,-1.5242,-1.5268,-1.5325,-1.5351,-1.5336,-1.5436,-1.5407,-1.5412,-1.5414,-1.5443,-1.5453,-1.5461,-1.5348,-1.5347,-1.5347,0,0,-1.5082,-1.5102,-1.5146,-1.5166,-1.5194,-1.5201,-1.5212,-1.5238,-1.5245,-1.5295,-1.5284,-1.5315,-1.5373,-1.5391,-1.5408,-1.5482,-1.547,-1.5493,-1.5529,-1.5559,-1.5567,-1.5574,-1.5597,-1.5606,-1.5499,-1.5499,-1.5499,0,-1.5112,-1.5167,-1.517,-1.5211,-1.523,-1.522,-1.5264,-1.5282,-1.5319,-1.5332,-1.5317,-1.5388,-1.5405,-1.5464,-1.5482,-1.5497,-1.5507,-1.5488,-1.5566,-1.5573,-1.5579,-1.5602,-1.5611,-1.5501,-1.5501,-1.55,-1.55,0,-1.5201,-1.5239,-1.5272,-1.5308,-1.5332,-1.5374,-1.5382,-1.5406,-1.5404,-1.5412,-1.5462,-1.5482,-1.5516,-1.5531,-1.5529,-1.559,-1.558,-1.5565,-1.5536,-1.5591,-1.5612,-1.5621,-1.5504,-1.5503,-1.5503,-1.5502,0,0,-1.5285,-1.5323,-1.5335,-1.535,-1.5381,-1.541,-1.5451,-1.5485,-1.5504,-1.553,-1.5563,-1.5612,-1.5598,-1.5617,-1.5618,-1.5645,-1.5698,-1.5626,-1.5627,-1.5636,-1.5763,-1.5771,-1.5781,-1.5692,-1.5694,-1.5695,-1.5759,0,-1.5353,-1.5426,-1.543,-1.5495,-1.5528,-1.5519,-1.5554,-1.5576,-1.5585,-1.5614,-1.5624,-1.5657,-1.5639,-1.5649,-1.5676,-1.5686,-1.5723,-1.5682,-1.572,-1.5721,-1.571,-1.5793,-1.5802,-1.5861,-1.5768,-1.5769,-1.5771,0,-1.5442,-1.547,-1.5539,-1.5563,-1.5577,-1.5609,-1.564,-1.5669,-1.5693,-1.5697,-1.5719,-1.5715,-1.5755,-1.5727,-1.5781,-1.5753,-1.5769,-1.5776,-1.5779,-1.5779,-1.5747,-1.5792,-1.5881,-1.5888,-1.5784,-1.5783,-1.5782,0,-1.5492,-1.5548,-1.5596,-1.561,-1.564,-1.5662,-1.5676,-1.5698,-1.5718,-1.5745,-1.5757,-1.5789,-1.5805,-1.5829,-1.5833,-1.5813,-1.5886,-1.5859,-1.5889,-1.5888,-1.5902,-1.59,-1.599,-1.5918,-1.5918,-1.5918,-1.5917,0,-1.5565,-1.5607,-1.5619,-1.5647,-1.5693,-1.5697,-1.5742,-1.5754,-1.5773,-1.5803,-1.5798,-1.5826,-1.5831,-1.586,-1.5864,-1.5906,-1.5914,-1.5917,-1.5917,-1.5916,-1.5915,-1.5924,-1.5919,-1.592,-1.592,-1.5919,-1.5919,0,-1.5628,-1.5638,-1.5689,-1.5714,-1.5721,-1.5753,-1.5773,-1.58,-1.5809,-1.5847,-1.5856,-1.5869,-1.5902,-1.591,-1.5949,-1.5952,-1.6001,-1.5999,-1.5993,-1.5991,-1.602,-1.6016,-1.6116,-1.6128,-1.6051,-1.6051,-1.6052,0,-1.5672,-1.5704,-1.5732,-1.5752,-1.5766,-1.5799,-1.5819,-1.5824,-1.5845,-1.5874,-1.5897,-1.593,-1.5956,-1.601,-1.6022,-1.6052,-1.6048,-1.6081,-1.6052,-1.605,-1.6045,-1.6041,-1.6043,-1.6086,-1.6087,-1.6087,-1.6088,0,-1.5749,-1.5752,-1.5782,-1.5813,-1.5837,-1.5862,-1.5886,-1.5902,-1.591,-1.5934,-1.5968,-1.5989,-1.6029,-1.6061,-1.6091,-1.6103,-1.6096,-1.6097,-1.6105,-1.6102,-1.6096,-1.6097,-1.6004,-1.6094,-1.6094,-1.6093,-1.6093,-1.6092,-1.5802,-1.5828,-1.5852,-1.5884,-1.5903,-1.5925,-1.595,-1.5963,-1.5991,-1.6025,-1.6026,-1.6063,-1.6085,-1.6124,-1.6139,-1.6167,-1.6156,-1.6168,-1.6171,-1.6173,-1.6174,-1.6095,-1.6173,-1.6172,-1.6172,-1.6172,-1.6172,0,-1.5875,-1.5889,-1.592,-1.5953,-1.5978,-1.5971,-1.5997,-1.6017,-1.605,-1.6072,-1.6098,-1.6136,-1.6167,-1.6182,-1.6212,-1.6231,-1.6228,-1.6238,-1.6235,-1.6238,-1.6183,-1.6172,-1.624,-1.624,-1.624,-1.624,-1.624,-1.624,-1.5916,-1.5959,-1.5965,-1.6018,-1.6032,-1.6068,-1.6083,-1.6102,-1.6119,-1.6162,-1.6188,-1.6198,-1.6217,-1.6248,-1.6275,-1.6279,-1.6289,-1.63,-1.6301,-1.6249,-1.6242,-1.6235,-1.6224,-1.6303,-1.6303,-1.6353,-1.6354,-1.6354]},{"header":{"parameterUnit":"m.s-1","parameterCategory":1,"la1":30.2991,"la2":30.254,"lo1":-89.0895,"lo2":-89.0444,"dy":0.0017,"dx":0.0017,"nx":28,"ny":28,"refTime":"2024-02-25T03:00:00:Z","depth":0,"parameterNumber":3,"parameterNumberName":"V-component_of_WINDS"},"data":[0,0,0,0,0,0,0,0,0,0,0,0,0,0,0,0,0,0,0,0,0,0,0,0,0,0,0,0,0,0,0,0,0,0,0,0,0,0,0,0,0,0,0,0,0,0,0,0,0,0,0,0,0,0,0,0,0,0,3.5769,3.577,0,3.5838,3.5839,3.584,3.591,3.5911,3.5912,3.5913,3.5979,3.598,3.5981,0,0,0,0,0,0,0,0,0,0,0,0,0,3.5694,3.5695,3.5769,3.577,3.5771,3.5838,3.5839,3.584,3.591,3.5911,3.5913,3.5914,3.5979,3.598,3.5981,0,0,0,0,0,0,0,0,0,0,0,0,0,3.5741,3.5695,3.5769,3.5814,3.5819,3.5838,3.5839,3.584,3.591,3.5911,3.5913,3.5914,3.5978,3.598,3.5981,3.596,0,0,3.5985,3.5985,0,0,0,0,0,0,0,0,3.5738,3.5744,3.5806,3.5811,3.5816,3.5867,3.5837,3.588,3.591,3.5875,3.5913,3.5915,3.594,3.5945,3.5955,3.5963,3.5966,3.5985,3.5986,3.5986,3.5987,0,0,0,0,0,0,0,3.5735,3.5741,3.5796,3.5807,3.5813,3.583,3.5838,3.5846,3.5898,3.5878,3.5884,3.5891,3.5943,3.5953,3.5957,3.5967,3.5985,3.5986,3.5987,3.5987,3.5964,3.5963,0,0,0,0,0,0,3.5725,3.5738,3.5794,3.5798,3.578,3.583,3.5839,3.5849,3.5899,3.5908,3.589,3.5894,3.595,3.5955,3.5959,3.594,3.5986,3.5988,3.5988,3.5966,3.5964,3.5963,0,0,0,0,0,0,3.5724,3.573,3.5791,3.577,3.5779,3.583,3.584,3.585,3.586,3.5908,3.5917,3.589,3.5952,3.5957,3.596,3.5944,3.5988,3.5989,3.5967,3.5965,3.5963,3.59,0,0,0,0,0,0,3.5721,3.5729,3.5722,3.5769,3.578,3.5792,3.5839,3.585,3.5863,3.5869,3.5911,3.5919,3.5953,3.5958,3.5962,3.5946,3.599,3.5969,3.5966,3.5964,3.5904,3.5897,3.589,0,0,0,0,0,3.5718,3.5699,3.5721,3.5727,3.5772,3.5791,3.5797,3.5838,3.5861,3.5854,3.5885,3.5917,3.5944,3.5958,3.5962,3.5947,3.597,3.5967,3.5964,3.5908,3.5898,3.589,0,0,0,0,0,0,3.5646,3.5706,3.5731,3.5727,3.5753,3.5803,3.5795,3.5826,3.5845,3.585,3.5899,3.5908,3.5906,3.5926,3.594,3.5931,3.5962,3.596,3.5917,3.5909,3.5902,3.5897,3.5991,0,0,0,0,0,3.563,3.5641,3.5692,3.5684,3.5696,3.5743,3.5753,3.5783,3.5812,3.5823,3.5854,3.5879,3.5894,3.5902,3.5918,3.5907,3.5918,3.5899,3.5892,3.5886,3.5883,3.5882,3.5875,3.5952,3.5953,3.5953,0,0,3.5596,3.563,3.5634,3.567,3.5695,3.5705,3.5752,3.576,3.5768,3.5823,3.5829,3.5853,3.5885,3.5882,3.5882,3.5899,3.5865,3.5882,3.5877,3.5878,3.5878,3.5871,3.5864,3.595,3.5951,3.5951,0,0,3.554,3.5567,3.5564,3.5588,3.5625,3.5657,3.5657,3.5702,3.5721,3.5728,3.577,3.578,3.5803,3.5825,3.5839,3.5795,3.5826,3.5798,3.5761,3.5759,3.5753,3.5748,3.5734,3.5729,3.5796,3.5796,3.5795,0,3.5493,3.5512,3.5558,3.5565,3.5581,3.5634,3.5632,3.5652,3.5691,3.5701,3.5719,3.5753,3.5777,3.5781,3.5771,3.578,3.5781,3.5794,3.575,3.5746,3.5742,3.5729,3.5724,3.5792,3.5793,3.5793,3.5793,0,3.5453,3.5465,3.5459,3.5499,3.5513,3.5515,3.5562,3.5571,3.56,3.563,3.5638,3.567,3.5694,3.5697,3.5724,3.5706,3.5716,3.5741,3.5775,3.573,3.5719,3.5715,3.5787,3.5788,3.5789,3.579,0,0,3.5353,3.5421,3.5418,3.5439,3.5484,3.5494,3.5499,3.5526,3.5534,3.5559,3.5565,3.5585,3.5611,3.5627,3.5657,3.5655,3.5621,3.5682,3.5683,3.5671,3.5605,3.5587,3.558,3.5641,3.5641,3.564,3.5603,0,3.5307,3.5321,3.5365,3.5365,3.5379,3.543,3.5435,3.5463,3.5491,3.5506,3.5536,3.5551,3.5582,3.5593,3.5593,3.5625,3.5609,3.5628,3.5648,3.5648,3.564,3.5575,3.5555,3.5518,3.5599,3.5598,3.5598,0,3.5254,3.528,3.5283,3.5332,3.5339,3.5342,3.5372,3.5385,3.5419,3.544,3.5459,3.5494,3.5502,3.5532,3.5544,3.5557,3.5567,3.5584,3.5584,3.5588,3.5621,3.5579,3.5507,3.5503,3.5591,3.5592,3.5592,0,3.5184,3.5219,3.5227,3.5242,3.5298,3.53,3.5323,3.5358,3.5372,3.5397,3.5407,3.5431,3.5445,3.5463,3.5504,3.5521,3.5512,3.5545,3.553,3.5529,3.5527,3.5527,3.5458,3.553,3.553,3.5531,3.5531,0,3.5129,3.5129,3.5196,3.5201,3.5203,3.5253,3.5253,3.5281,3.5313,3.5323,3.5368,3.5377,3.5429,3.5444,3.5475,3.5482,3.5487,3.5504,3.5513,3.5501,3.5499,3.551,3.5514,3.5529,3.5529,3.553,3.553,0,3.5051,3.5096,3.5108,3.5161,3.5175,3.5174,3.5219,3.5226,3.5258,3.5271,3.5277,3.5326,3.5346,3.5388,3.5418,3.544,3.544,3.5454,3.5429,3.5435,3.5419,3.5421,3.5356,3.5351,3.5424,3.5423,3.5423,0,3.5014,3.5016,3.5071,3.5083,3.5105,3.5122,3.5138,3.5187,3.5202,3.5242,3.5243,3.5268,3.529,3.5319,3.5357,3.5381,3.5397,3.5373,3.5401,3.539,3.54,3.54,3.5401,3.5367,3.5366,3.5365,3.5364,0,3.4944,3.4967,3.4989,3.502,3.5038,3.5064,3.5091,3.5098,3.5154,3.5167,3.519,3.5207,3.5241,3.5264,3.5295,3.5317,3.535,3.5355,3.5354,3.5343,3.5329,3.5339,3.5414,3.5357,3.5357,3.5358,3.5358,3.5359,3.4887,3.4892,3.4933,3.4957,3.4984,3.501,3.502,3.5054,3.5074,3.5107,3.5134,3.5155,3.519,3.5235,3.5256,3.5272,3.5288,3.5285,3.5284,3.5283,3.528,3.5326,3.5277,3.5278,3.5278,3.5278,3.5278,0,3.4821,3.4851,3.4872,3.4912,3.4931,3.4962,3.4996,3.5009,3.5028,3.5059,3.5081,3.5108,3.5132,3.5172,3.52,3.5205,3.5221,3.5211,3.5212,3.5217,3.5263,3.5263,3.5198,3.5198,3.5198,3.5198,3.5198,3.5198,3.479,3.4802,3.483,3.4856,3.4885,3.4908,3.4925,3.4949,3.4975,3.5004,3.5025,3.5052,3.5088,3.5118,3.5142,3.5153,3.5162,3.5147,3.5163,3.5206,3.5213,3.522,3.5221,3.5148,3.5148,3.5117,3.5116,3.5116]}]]